Home   Weather   Førde   Past weeks

Flag for Norway Past Weather in Førde, Norway — Yesterday and Last 2 Weeks

Now
48 °F

Sprinkles. Cloudy.


Feels Like: 46 °F
Forecast: 43 / 45 °F
Wind: 6 mph from South

Location: Forde / Bringeland

Current Time: Sep 29, 2016 at 5:25:50 PM

Latest Report: Sep 29, 2016 at 4:50 PM


Visibility: N/A

Pressure: 28.80 "Hg

Humidity: 87%

Dew Point: 45 °F

Location of FørdeLocation

Past Weather in Førde — Graph

°F

Førde Temperature Yesterday

Maximum temperature yesterday: 48 °F (at 6:20 AM)
Minimum temperature yesterday: 45 °F (at 6:20 PM)
Average temperature yesterday: 47 °F

High & Low Weather Summary for the Past Weeks

 TemperatureHumidityPressure
High77 °F (Sep 15, 3:50 PM)100% (Sep 15, 6:20 AM)30.18 "Hg (Sep 15, 6:20 AM)
Low45 °F (Sep 23, 9:20 PM)40% (Sep 25, 5:50 PM)28.82 "Hg (Sep 29, 3:50 PM)
Average56 °F82%29.96 "Hg
* Reported Sep 14 3:20 PM — Sep 29 3:50 PM, Førde, Weather by CustomWeather, © 2016

Note: Actual official high and low records may vary slightly from our data, if they occured in-between our weather recording intervals... More about our weather records

Advertising

Førde Weather History for the Previous 24 Hours

Scroll right to see more
 ConditionsComfort  
Time TempWeatherWind HumidityBarometerVisibility
3:50 PM
Thu, Sep 29
46 °FRain showers. Broken clouds.9 mph93%28.82 "Hg5 mi
3:20 PM46 °FRain showers. Broken clouds.13 mph87%28.85 "Hg6 mi
2:20 PM46 °FSprinkles. Broken clouds.8 mph93%28.91 "HgN/A
1:50 PM46 °FRain showers. Broken clouds.8 mph93%28.94 "HgN/A
1:20 PM46 °FRain showers. Broken clouds.16 mph87%28.94 "HgN/A
12:20 PM48 °FScattered showers. Broken clouds.8 mph94%28.97 "HgN/A
11:50 AM48 °FSprinkles. Broken clouds.12 mph87%29.00 "HgN/A
11:20 AM46 °FSprinkles. Broken clouds.8 mph93%29.00 "HgN/A
10:50 AM46 °FSprinkles. Broken clouds.7 mph93%29.03 "HgN/A
9:50 AM46 °FScattered showers. Partly sunny.9 mph93%29.03 "HgN/A
9:20 AM50 °FScattered showers. Partly sunny.14 mph88%29.03 "HgN/A
8:20 AM50 °FThunderstorms. Broken clouds.16 mph88%29.06 "Hg5 mi
7:50 AM50 °FThundershowers. Broken clouds.9 mph94%29.06 "HgN/A
7:20 AM50 °FRain showers. Partly cloudy.15 mph94%29.09 "Hg5 mi
6:50 AM50 °FSprinkles. Partly cloudy.7 mph94%29.12 "Hg5 mi
6:20 AM50 °FRain showers. Partly cloudy.9 mph94%29.12 "Hg5 mi
5:50 AM48 °FRain showers. Partly cloudy.7 mph94%29.15 "Hg4 mi
11:20 PM
Wed, Sep 28
45 °FQuite cool.2 mph93%29.59 "HgN/A
10:50 PM45 °FSprinkles. Overcast.3 mph93%29.59 "HgN/A
10:20 PM45 °FQuite cool.5 mph93%29.62 "HgN/A
9:50 PM45 °FQuite cool.1 mph93%29.65 "HgN/A
9:20 PM45 °FLight rain. Overcast.3 mph93%29.65 "Hg3 mi
8:50 PM45 °FPartly cloudy.1 mph93%29.65 "HgN/A
7:50 PM45 °FPartly cloudy.3 mph93%29.68 "HgN/A
7:20 PM45 °FPartly cloudy.2 mph93%29.68 "HgN/A
6:50 PM45 °FFog.N/A100%29.68 "HgN/A
6:20 PM45 °FQuite cool.3 mph100%29.68 "HgN/A
5:50 PM46 °FDrizzle. Cloudy.5 mph93%29.71 "Hg1 mi
5:20 PM46 °FDrizzle. Cloudy.7 mph93%29.68 "Hg1 mi
Weather by CustomWeather, © 2016

See weather overviewHow to use our weather pages